Wetbulb
67.58 65.27 62.32 59.71 52.26 53.36 49.49 52.49 55.37 55.74 55.94 55.77 55.60 54.87 54.87 56.50 57.16 52.59 65.33 68.10 68.39 64.58 67.70 73.36 74.30 73.75 73.17 72.69 72.24 71.95 71.49 70.81 69.99 68.93 68.28 67.63 67.39 67.05 67.07 67.23 67.41 67.51 67.62 67.67 67.61 67.25 67.03 66.81 66.94
65.57 62.07 62.32 59.61 51.52 47.82 52.68 55.69 55.73 57.44 59.15 59.70 55.99 54.75 54.04 54.26 58.89 62.21 65.81 68.30 68.16 65.79 70.26 71.27 74.55 73.98 73.67 73.13 72.81 72.29 71.94 71.19 70.66 69.95 68.92 68.28 68.20 67.96 67.76 68.17 68.15 68.10 68.27 68.15 68.92 68.69 68.58 67.89 67.24
62.87 60.65 60.05 57.59 54.16 51.10 52.76 55.87 57.23 58.90 59.52 56.37 55.72 55.45 55.42 56.44 61.30 63.38 67.87 68.56 66.82 66.83 70.50 72.45 74.43 73.93 73.83 73.68 73.21 72.89 72.44 71.87 71.12 70.09 69.69 69.42 69.49 69.65 69.61 68.91 68.99 68.60 68.72 68.69 69.59 69.54 68.96 68.93 68.36
59.84 61.46 60.48 52.73 51.01 54.52 55.29 57.42 58.76 58.81 57.55 55.53 54.64 54.32 57.96 60.60 61.87 64.25 68.45 68.04 66.83 67.12 70.50 72.00 74.30 74.05 73.88 73.80 73.41 73.13 72.84 72.29 71.65 70.76 70.53 70.33 70.39 70.55 70.58 69.67 69.74 69.25 69.28 69.27 69.57 68.96 69.62 69.67 69.32
63.90 61.97 52.54 51.16 51.33 54.47 57.57 59.47 59.11 57.28 56.67 55.54 54.70 53.93 56.69 60.14 63.26 65.15 68.25 68.04 66.70 66.96 70.13 71.49 74.28 74.17 74.10 73.98 73.71 73.31 72.96 72.51 72.17 71.70 71.06 70.89 71.23 70.49 70.12 70.10 69.48 69.44 69.25 69.27 69.16 69.42 69.87 70.15 69.33
57.94 59.63 50.88 47.56 49.51 53.53 56.29 58.27 57.69 56.17 56.72 55.77 54.56 54.58 57.29 61.00 63.11 66.15 68.22 68.72 68.29 67.72 69.17 71.58 73.76 74.22 74.02 73.78 73.51 73.41 72.93 72.68 72.56 72.24 71.75 71.55 71.48 70.37 70.03 69.68 69.54 69.33 69.13 69.00 68.89 69.35 69.60 69.55 69.87
55.84 54.76 49.11 49.33 48.70 50.85 53.49 57.52 55.74 56.08 55.26 56.03 56.82 53.97 58.25 60.32 63.05 66.04 67.93 69.27 68.75 69.05 69.23 71.09 72.48 73.95 74.12 73.77 73.35 73.22 73.16 72.74 72.54 72.24 71.89 71.52 70.27 69.59 68.64 67.34 67.24 67.48 67.90 68.17 68.41 68.19 68.97 68.88 68.36
58.21 56.23 49.74 50.59 48.57 49.53 54.15 55.34 55.47 55.64 55.68 57.91 58.07 54.68 57.04 61.48 62.78 66.75 67.79 67.98 67.67 68.74 69.52 70.44 71.97 72.55 72.51 72.60 73.82 73.56 73.35 72.95 72.50 72.57 71.57 70.07 68.54 66.32 66.08 66.43 65.76 65.81 66.27 66.77 66.94 67.72 67.78 68.12 68.66
57.71 51.82 48.71 49.33 49.38 51.76 54.77 54.22 56.25 58.20 57.44 57.46 57.45 59.03 60.71 61.54 62.48 65.10 66.32 66.34 66.80 67.26 69.02 69.98 70.89 72.22 72.13 71.73 72.39 73.47 72.88 72.16 72.12 70.69 69.44 68.18 66.81 66.90 66.07 64.97 65.08 64.76 65.02 65.86 66.26 66.40 66.69 66.77 67.15
55.33 51.29 50.79 53.96 54.35 53.34 54.35 54.74 55.71 55.67 55.99 56.49 57.83 60.19 60.20 60.76 61.16 62.16 64.22 64.44 65.40 66.35 67.55 69.05 70.86 71.33 71.74 71.35 72.42 72.15 71.38 70.36 69.91 69.27 68.02 67.75 68.05 67.21 65.96 65.23 64.77 64.63 65.14 66.00 66.36 67.11 66.55 67.44 66.26
54.75 50.84 54.47 54.91 55.68 55.55 54.71 54.96 56.92 54.91 53.91 56.56 56.54 58.77 60.73 61.54 61.00 61.37 63.21 64.59 65.11 66.84 67.80 68.42 70.19 71.43 71.30 70.95 71.38 71.03 69.83 69.58 69.23 68.12 67.81 67.55 66.53 66.28 65.61 65.15 65.35 65.60 64.57 64.82 65.43 65.54 65.10 66.54 67.01
51.19 54.44 55.10 55.60 56.38 55.62 54.28 56.09 54.24 56.19 56.69 59.38 59.77 60.36 60.33 60.27 60.69 60.86 62.36 64.34 65.21 66.03 67.23 68.76 69.88 70.29 71.37 70.43 69.96 69.29 68.37 67.98 66.89 66.91 67.57 66.89 66.08 65.71 65.06 64.26 64.76 64.61 64.48 64.75 65.44 65.36 65.64 66.27 66.80
52.03 53.31 55.23 56.24 56.32 56.17 56.41 54.10 54.80 55.11 57.64 59.40 59.75 60.14 60.14 60.85 60.83 61.46 62.07 63.77 65.31 65.05 66.33 68.03 69.25 69.82 69.81 69.42 68.46 68.07 67.43 66.41 66.61 66.53 66.70 66.35 65.88 65.39 65.14 64.85 64.69 64.65 64.31 65.01 65.11 65.30 64.84 65.35 66.14
53.17 53.49 53.89 55.20 55.25 55.69 53.88 53.98 55.30 56.12 58.90 58.29 59.07 59.37 60.01 60.38 60.38 60.74 61.07 61.42 63.09 64.05 64.39 66.82 68.13 69.47 68.76 67.70 67.55 66.97 66.95 66.74 66.38 66.04 65.96 66.05 65.44 65.08 64.68 64.47 64.51 64.91 65.26 65.06 64.90 64.44 64.42 64.10 65.26
53.28 50.45 52.81 53.28 54.04 53.40 53.40 49.59 50.25 55.37 56.46 55.94 56.91 58.14 59.20 59.85 60.15 59.84 61.93 62.42 63.28 63.23 63.17 65.16 67.39 68.13 67.29 67.06 66.62 66.07 65.86 66.12 65.75 65.91 66.59 65.92 65.93 65.87 65.51 65.02 64.95 65.95 66.32 65.34 65.08 64.71 64.64 64.04 64.46
47.10 47.48 43.91 49.11 50.17 50.76 49.96 45.63 51.90 55.15 55.09 55.21 56.53 57.25 57.50 59.15 60.26 61.19 61.98 63.02 63.43 62.30 61.31 64.03 65.12 66.12 66.47 66.19 65.73 65.47 65.60 65.74 65.66 65.87 66.05 66.06 66.31 66.32 66.01 65.32 64.84 65.68 65.24 65.21 63.80 63.49 62.73 62.81 63.33
45.24 41.84 42.84 45.26 49.54 48.79 49.86 47.30 51.51 54.27 54.10 53.70 55.06 55.98 56.89 58.07 60.05 62.23 61.86 62.50 61.88 61.28 62.18 62.81 64.57 64.89 65.18 65.76 65.41 65.54 66.06 65.33 65.51 66.00 65.94 66.23 66.07 66.15 65.13 64.92 64.84 65.48 63.97 63.48 63.61 63.11 62.68 61.95 62.43
41.65 41.28 43.22 43.20 47.75 47.52 47.01 47.29 50.76 52.48 52.81 53.21 54.64 55.92 56.63 57.05 58.65 61.47 61.21 60.84 60.48 61.25 63.10 64.21 64.13 64.59 65.04 64.75 64.56 64.73 65.04 65.38 65.95 65.90 65.91 66.39 66.21 65.93 65.37 64.76 64.19 64.40 62.96 62.56 62.67 62.87 62.64 62.58 63.15
45.56 44.55 44.32 47.33 48.19 46.05 46.05 46.59 49.34 51.96 52.77 52.84 53.85 54.67 56.25 58.08 59.92 57.84 58.29 58.91 59.78 61.28 62.26 63.46 63.81 64.47 63.71 63.03 62.63 63.53 63.62 64.83 65.26 65.88 66.67 66.77 66.75 66.13 65.76 64.87 63.56 62.07 61.93 63.07 62.94 62.51 61.53 61.32 62.94
43.54 42.69 43.02 45.32 46.55 46.45 46.19 46.09 49.65 51.14 51.63 52.95 54.25 55.23 56.20 57.91 58.72 57.04 56.89 58.32 59.91 60.53 61.86 63.07 63.70 63.83 64.04 63.95 64.34 65.41 65.54 65.59 66.01 66.77 66.67 66.60 66.19 65.95 65.14 63.38 62.72 62.02 62.30 62.94 62.51 62.06 60.49 61.93 63.02
42.37 41.49 42.24 42.56 45.77 47.05 45.89 44.21 46.84 50.60 52.71 53.53 54.17 55.55 56.81 57.15 57.98 57.51 56.10 57.57 59.67 60.30 61.33 62.62 63.32 63.86 64.46 65.11 64.47 64.89 65.32 65.12 64.76 65.11 65.92 66.04 65.09 64.44 64.91 64.31 63.55 63.63 63.14 62.54 62.41 62.00 61.50 60.80 61.50
39.58 44.81 43.99 43.15 42.12 38.48 46.46 37.34 45.34 48.11 49.35 51.32 52.94 55.32 56.55 57.53 57.15 57.33 56.23 56.97 59.04 60.26 61.93 63.37 63.73 64.24 64.61 65.02 64.75 64.95 63.94 63.49 64.59 65.06 65.13 65.47 64.11 64.42 64.56 64.82 63.77 64.14 63.44 62.67 62.09 62.44 62.64 62.79 60.90
42.26 45.98 44.48 44.21 42.61 42.70 42.60 39.73 43.55 47.95 46.76 49.63 52.43 54.24 56.97 56.00 56.19 56.88 56.77 57.68 59.32 60.84 62.15 63.28 64.04 64.41 64.70 64.99 65.28 64.61 64.67 64.52 65.01 64.76 64.05 64.41 65.18 64.48 63.76 64.33 64.33 64.12 63.14 63.36 62.76 62.62 62.36 64.08 63.14
47.30 45.49 45.35 44.90 42.95 35.88 41.15 40.46 40.87 44.68 47.22 49.46 53.07 55.31 54.86 55.22 55.91 56.25 57.38 58.57 59.42 61.41 62.26 62.85 63.42 63.93 64.41 64.82 65.15 65.86 64.55 63.82 63.09 63.45 63.47 63.71 64.36 64.06 64.36 63.50 64.01 64.18 63.82 63.47 62.94 63.21 63.32 63.28 64.34
45.95 43.01 35.82 34.12 34.33 33.80 43.09 40.53 41.48 47.85 49.56 50.80 52.48 55.32 55.17 55.68 55.73 55.82 56.57 57.75 59.30 60.55 61.81 62.46 63.19 62.77 64.01 64.42 64.75 64.80 64.28 63.71 62.75 62.99 63.29 62.91 62.47 62.12 63.76 63.99 63.85 64.53 64.47 64.36 64.00 63.60 63.59 63.59 63.36
43.63 42.53 37.18 31.14 33.18 36.93 42.58 37.60 41.50 50.69 52.27 52.49 54.39 55.71 55.16 55.86 56.06 56.37 57.37 58.44 59.42 60.83 61.67 62.37 62.81 62.71 63.54 64.35 64.83 64.61 64.51 63.68 63.29 63.00 63.65 63.00 62.77 62.94 64.06 63.77 64.52 64.66 64.59 64.59 64.82 63.92 63.63 63.94 64.62
42.91 40.37 45.57 38.93 40.98 38.32 41.04 43.93 48.12 51.48 51.87 53.62 53.71 53.05 54.57 55.70 56.11 56.29 57.57 58.94 59.91 60.78 61.92 62.72 62.80 63.01 63.86 64.39 64.54 64.36 64.21 62.84 62.99 63.30 63.37 62.71 63.27 63.25 63.82 63.87 64.82 64.84 65.09 64.97 65.30 64.61 64.26 64.10 64.25
43.92 45.83 38.24 39.79 32.01 30.62 37.50 40.21 43.33 48.66 50.50 52.52 53.04 53.39 54.29 55.66 55.89 56.29 57.53 58.82 59.92 61.34 62.28 63.03 62.90 62.83 63.79 63.73 64.46 64.03 63.89 63.05 63.46 63.23 62.69 62.98 63.33 63.57 63.33 63.39 64.55 65.05 65.22 65.28 64.82 63.75 64.16 64.05 64.40
41.04 41.19 42.32 42.71 39.99 34.55 33.36 38.52 50.55 51.46 53.40 53.25 53.93 54.82 54.77 55.65 56.14 56.62 57.78 59.12 60.04 61.35 61.85 61.97 61.94 61.89 62.12 63.06 64.10 64.18 63.54 63.26 63.42 62.99 62.65 62.70 63.20 63.15 62.74 63.25 63.92 64.51 64.67 64.52 63.68 63.37 63.14 63.30 63.79
44.51 42.97 43.06 37.48 35.78 39.71 39.20 40.00 51.07 52.81 53.62 53.28 53.20 54.11 55.24 56.47 56.97 57.36 58.06 58.83 59.55 60.04 61.31 61.16 61.74 61.78 62.22 63.70 63.70 64.14 64.13 63.53 62.95 62.64 62.58 62.78 62.66 63.06 62.83 63.63 63.54 63.65 64.17 63.20 62.39 61.89 62.17 62.38 62.23
MSLP
1014.63 1014.94 1014.89 1014.39 1014.50 1013.05 1011.65 1010.76 1010.28 1009.48 1009.15 1008.96 1008.93 1008.63 1008.47 1008.09 1007.96 1007.75 1007.78 1008.31 1008.59 1009.03 1009.86 1010.67 1011.20 1011.70 1012.16 1012.54 1012.92 1013.32 1013.67 1013.96 1014.17 1014.50 1014.81 1014.99 1015.10 1015.32 1015.47 1015.55 1015.56 1015.49 1015.51 1015.63 1015.67 1015.73 1015.70 1015.83 1015.87
1014.54 1014.77 1014.53 1013.72 1013.33 1012.33 1010.59 1010.06 1009.24 1008.76 1008.57 1008.49 1008.34 1008.14 1008.14 1007.50 1007.78 1007.34 1007.46 1008.12 1008.53 1008.84 1009.65 1010.05 1010.76 1011.21 1011.81 1012.34 1012.64 1013.07 1013.45 1013.80 1014.05 1014.34 1014.54 1014.81 1014.89 1015.02 1015.16 1015.18 1015.24 1015.31 1015.33 1015.31 1015.52 1015.64 1015.69 1015.58 1015.69
1014.63 1014.16 1013.48 1012.91 1012.40 1011.08 1009.85 1009.28 1008.70 1008.58 1008.42 1008.19 1007.82 1007.72 1007.49 1007.11 1007.38 1007.19 1007.07 1007.87 1008.47 1008.98 1009.37 1009.81 1010.41 1010.84 1011.46 1012.01 1012.47 1012.81 1013.06 1013.40 1013.75 1014.08 1014.34 1014.58 1014.69 1014.75 1014.82 1014.95 1015.03 1015.09 1015.06 1015.02 1015.10 1015.08 1015.26 1015.42 1015.38
1013.83 1013.62 1013.51 1012.73 1011.37 1010.84 1009.71 1008.91 1008.69 1008.21 1007.97 1007.96 1007.71 1007.32 1007.35 1006.97 1006.99 1007.15 1007.34 1007.85 1008.47 1008.95 1009.40 1009.81 1010.39 1010.91 1011.32 1011.69 1012.13 1012.56 1012.88 1013.14 1013.46 1013.79 1014.03 1014.24 1014.38 1014.56 1014.65 1014.69 1014.68 1014.75 1014.76 1014.72 1014.73 1014.70 1014.84 1015.13 1015.18
1013.28 1012.88 1012.34 1011.87 1011.06 1010.20 1009.42 1008.66 1008.72 1008.13 1008.09 1007.64 1007.65 1007.14 1006.95 1006.75 1007.07 1007.36 1007.82 1008.10 1008.08 1008.61 1009.07 1009.75 1010.38 1010.62 1010.96 1011.44 1011.99 1012.42 1012.75 1013.02 1013.26 1013.48 1013.67 1013.89 1014.09 1014.27 1014.36 1014.38 1014.40 1014.32 1014.40 1014.42 1014.44 1014.41 1014.59 1014.77 1014.96
1012.54 1012.57 1011.93 1011.03 1010.22 1009.79 1008.89 1008.40 1008.39 1007.90 1007.76 1007.53 1007.50 1007.23 1006.64 1006.68 1006.91 1007.00 1007.49 1007.79 1007.93 1008.27 1008.87 1009.39 1009.94 1010.61 1010.98 1011.44 1011.84 1012.34 1012.69 1012.98 1013.25 1013.39 1013.53 1013.65 1013.76 1013.96 1014.13 1014.14 1014.12 1014.08 1014.14 1014.11 1014.17 1014.22 1014.43 1014.61 1014.67
1012.04 1011.76 1011.11 1010.92 1009.78 1009.19 1008.19 1007.88 1007.88 1007.44 1007.40 1007.16 1007.13 1006.85 1006.51 1006.62 1006.67 1007.19 1007.57 1007.73 1007.85 1007.96 1008.71 1009.22 1009.53 1010.33 1010.94 1011.24 1011.53 1012.10 1012.50 1012.78 1013.09 1013.28 1013.43 1013.54 1013.66 1013.85 1014.01 1014.08 1014.01 1013.91 1013.91 1013.90 1014.05 1014.21 1014.37 1014.48 1014.61
1012.16 1011.71 1010.98 1010.47 1009.55 1008.45 1007.88 1007.99 1007.56 1007.46 1007.27 1007.31 1007.33 1006.62 1006.48 1006.49 1006.90 1007.24 1007.65 1007.85 1008.16 1008.19 1008.34 1008.75 1009.16 1009.71 1010.39 1010.94 1011.43 1011.76 1012.12 1012.50 1012.88 1013.13 1013.32 1013.55 1013.61 1013.72 1013.85 1013.90 1013.87 1013.79 1013.79 1013.75 1013.82 1013.95 1014.08 1014.18 1014.25
1012.34 1011.61 1009.97 1009.34 1009.01 1007.46 1007.88 1007.94 1008.18 1007.96 1007.47 1007.14 1007.08 1006.71 1006.56 1006.93 1007.17 1007.27 1007.55 1007.72 1007.80 1008.12 1008.41 1008.58 1008.90 1009.32 1009.95 1010.46 1011.00 1011.70 1011.98 1012.28 1012.65 1012.97 1013.19 1013.40 1013.27 1013.40 1013.60 1013.66 1013.80 1013.69 1013.67 1013.66 1013.63 1013.67 1013.74 1013.88 1013.90
1011.38 1010.62 1009.23 1008.08 1007.77 1007.57 1007.97 1008.19 1008.23 1008.03 1007.28 1006.36 1006.56 1006.35 1006.68 1006.65 1006.87 1006.81 1006.86 1006.60 1007.04 1007.16 1007.75 1008.10 1008.66 1009.08 1009.69 1010.28 1010.72 1011.20 1011.59 1011.89 1012.28 1012.59 1012.86 1012.93 1013.19 1013.33 1013.56 1013.60 1013.64 1013.58 1013.46 1013.32 1013.32 1013.36 1013.42 1013.33 1013.08
1010.16 1009.18 1008.42 1007.84 1007.51 1008.29 1008.19 1007.87 1007.97 1007.71 1006.40 1005.29 1005.83 1005.55 1005.49 1005.63 1006.06 1006.17 1006.04 1005.73 1005.40 1006.67 1007.02 1007.69 1008.39 1008.98 1009.62 1010.25 1010.66 1011.08 1011.47 1011.81 1012.19 1012.40 1012.67 1012.80 1013.05 1013.18 1013.32 1013.23 1013.20 1013.20 1013.27 1013.11 1013.03 1012.99 1012.85 1012.79 1012.69
1009.43 1008.66 1008.57 1007.31 1007.83 1008.32 1007.93 1007.88 1007.37 1007.59 1005.49 1005.62 1005.35 1005.32 1005.26 1004.83 1004.99 1005.28 1005.18 1004.97 1005.40 1005.72 1006.54 1007.18 1008.11 1008.83 1009.45 1009.79 1010.24 1010.77 1011.22 1011.64 1011.78 1011.98 1012.40 1012.52 1012.65 1012.86 1013.11 1012.99 1012.98 1013.18 1013.03 1013.04 1012.97 1012.83 1012.88 1012.77 1012.63
1008.67 1008.31 1007.88 1007.84 1007.94 1008.12 1008.09 1007.69 1007.53 1006.55 1004.56 1005.46 1005.08 1004.78 1004.47 1004.23 1004.20 1004.31 1004.40 1004.32 1004.81 1005.42 1006.08 1007.12 1007.58 1007.99 1008.83 1009.71 1010.10 1010.59 1011.03 1011.33 1011.38 1011.73 1011.99 1012.23 1012.36 1012.57 1012.76 1012.83 1012.81 1012.86 1012.71 1012.73 1012.77 1012.80 1012.68 1012.61 1012.57
1007.59 1008.05 1007.55 1007.62 1007.75 1007.35 1007.59 1006.91 1007.34 1005.42 1004.04 1004.80 1004.49 1003.98 1003.55 1003.42 1003.28 1003.62 1003.87 1003.70 1004.28 1004.71 1005.67 1006.60 1006.98 1007.74 1008.78 1009.30 1009.89 1010.39 1010.81 1010.97 1011.29 1011.48 1011.68 1012.01 1012.16 1012.30 1012.45 1012.52 1012.54 1012.41 1012.47 1012.53 1012.64 1012.53 1012.60 1012.48 1012.57
1008.01 1007.81 1007.47 1007.38 1007.24 1007.18 1007.38 1005.41 1005.60 1003.85 1004.26 1004.26 1003.67 1003.17 1002.94 1002.64 1002.64 1002.69 1002.65 1003.02 1003.11 1003.97 1005.19 1006.39 1006.66 1007.29 1008.15 1008.91 1009.65 1010.11 1010.35 1010.82 1011.00 1011.25 1011.55 1011.69 1011.92 1011.98 1012.19 1012.16 1012.15 1012.10 1012.23 1012.36 1012.49 1012.52 1012.49 1012.48 1012.42
1007.92 1007.37 1006.45 1006.12 1006.56 1006.59 1007.30 1003.14 1003.77 1003.54 1003.84 1003.33 1002.99 1002.64 1002.50 1001.97 1001.73 1001.79 1001.85 1002.32 1002.88 1003.81 1004.72 1005.63 1006.64 1007.24 1008.08 1008.81 1009.54 1009.85 1010.09 1010.53 1010.80 1011.03 1011.17 1011.17 1011.38 1011.57 1011.66 1011.66 1011.63 1011.70 1011.91 1012.03 1012.16 1012.25 1012.26 1012.25 1012.21
1007.01 1005.46 1005.80 1005.82 1006.00 1005.95 1005.89 1003.33 1003.13 1003.39 1003.36 1003.15 1002.52 1002.14 1001.95 1001.55 1001.20 1000.86 1001.34 1001.66 1002.48 1003.33 1004.45 1005.47 1006.38 1006.87 1007.67 1008.68 1009.30 1009.74 1010.21 1010.46 1010.65 1010.75 1010.62 1010.69 1010.90 1011.06 1011.27 1011.26 1011.28 1011.53 1011.74 1011.88 1011.99 1012.03 1012.14 1011.94 1011.92
1005.08 1005.72 1005.43 1005.13 1005.21 1005.29 1004.25 1003.04 1003.30 1003.33 1002.87 1002.63 1002.03 1001.55 1001.49 1001.05 1000.30 1000.31 1000.87 1001.49 1002.35 1003.11 1003.82 1004.63 1005.70 1006.55 1007.51 1008.36 1009.17 1009.68 1010.03 1010.26 1010.32 1010.34 1010.24 1010.37 1010.43 1010.65 1010.90 1011.07 1011.29 1011.37 1011.60 1011.76 1011.87 1011.82 1011.83 1011.77 1011.78
1005.48 1005.21 1004.36 1004.23 1004.59 1004.87 1003.53 1003.37 1003.33 1002.68 1002.40 1002.06 1001.40 1001.01 1000.58 1000.07 999.82 1000.64 1001.07 1001.75 1002.34 1003.06 1003.73 1004.42 1005.55 1006.76 1007.29 1008.01 1008.66 1009.23 1009.46 1009.78 1009.99 1010.04 1010.00 1010.01 1010.14 1010.21 1010.46 1010.75 1010.99 1011.34 1011.40 1011.36 1011.52 1011.49 1011.45 1011.39 1011.50
1005.55 1005.07 1004.52 1004.72 1004.76 1004.79 1003.84 1002.91 1002.77 1002.45 1001.65 1001.23 1000.75 1000.12 999.90 999.54 999.75 1000.66 1001.41 1002.26 1002.51 1002.99 1003.80 1004.39 1005.28 1006.29 1007.09 1007.66 1008.34 1008.74 1009.27 1009.55 1009.63 1009.77 1009.77 1009.71 1009.78 1009.90 1010.17 1010.55 1010.73 1011.05 1011.16 1011.22 1011.27 1011.27 1011.03 1011.14 1011.26
1004.54 1004.37 1004.41 1004.54 1004.50 1004.46 1003.95 1002.56 1001.97 1001.28 1001.01 1000.46 999.87 999.81 999.26 999.32 999.46 1000.25 1001.29 1002.13 1003.15 1003.34 1003.91 1004.49 1005.31 1006.27 1006.95 1007.63 1008.37 1008.93 1009.43 1009.52 1009.38 1009.43 1009.49 1009.62 1009.68 1009.84 1009.96 1010.19 1010.45 1010.70 1010.79 1010.65 1010.87 1010.96 1010.84 1010.85 1011.02
1003.32 1004.07 1004.75 1004.77 1005.06 1003.64 1003.82 1001.67 1001.41 1000.91 1000.07 999.20 998.69 998.89 998.55 998.98 999.46 1000.16 1001.07 1002.19 1002.94 1003.85 1004.29 1004.79 1005.52 1006.26 1007.01 1007.73 1008.10 1008.54 1008.75 1008.77 1009.03 1009.19 1009.45 1009.59 1009.63 1009.69 1009.68 1009.90 1010.22 1010.36 1010.47 1010.60 1010.63 1010.71 1010.73 1010.81 1010.61
1002.63 1004.05 1004.60 1004.84 1004.64 1004.12 1003.54 1002.92 1000.60 1000.37 998.90 997.84 997.71 997.70 998.11 998.62 999.27 1000.12 1000.96 1001.97 1002.89 1003.87 1004.44 1005.09 1005.72 1006.33 1007.09 1007.67 1008.00 1008.30 1008.57 1008.79 1008.97 1009.17 1009.34 1009.55 1009.64 1009.70 1009.77 1009.91 1010.04 1010.20 1010.27 1010.40 1010.51 1010.68 1010.81 1010.67 1010.51
1003.28 1003.88 1004.31 1004.53 1004.42 1003.31 1002.83 1002.67 1000.07 999.03 997.59 997.21 996.87 996.97 997.75 998.81 999.73 1000.52 1001.44 1002.22 1002.97 1003.75 1004.48 1005.21 1005.83 1006.53 1007.09 1007.61 1008.01 1008.11 1008.33 1008.59 1008.73 1008.95 1009.13 1009.29 1009.50 1009.81 1009.80 1009.82 1009.90 1010.02 1010.04 1010.10 1010.27 1010.49 1010.63 1010.50 1010.45
1002.77 1003.35 1003.50 1003.65 1003.43 1001.80 1001.49 1001.46 998.79 997.53 996.92 996.89 996.58 996.72 998.10 999.23 1000.06 1000.80 1001.47 1002.03 1002.95 1003.79 1004.46 1005.18 1005.78 1006.47 1007.08 1007.51 1007.77 1007.98 1008.21 1008.42 1008.58 1008.82 1008.95 1009.15 1009.39 1009.75 1009.72 1009.75 1009.74 1009.74 1009.75 1009.80 1010.18 1010.31 1010.32 1010.34 1010.33
1000.98 1001.49 1001.43 1001.71 1001.56 1000.91 1000.97 1000.15 997.66 996.55 995.95 996.09 996.27 996.83 998.24 999.45 1000.33 1000.99 1001.75 1002.21 1002.97 1003.79 1004.49 1005.08 1005.75 1006.38 1006.99 1007.33 1007.61 1007.92 1008.13 1008.25 1008.55 1008.81 1008.91 1009.15 1009.25 1009.48 1009.72 1009.71 1009.66 1009.57 1009.58 1009.70 1009.96 1010.02 1010.01 1010.22 1010.30
999.93 1000.16 1000.64 1001.08 1001.57 1000.72 999.98 998.89 997.25 996.17 995.75 995.56 995.94 997.10 998.28 999.44 1000.33 1001.07 1002.01 1002.50 1003.04 1003.82 1004.46 1004.97 1005.65 1006.28 1006.74 1007.18 1007.47 1007.73 1008.08 1008.43 1008.68 1008.94 1009.20 1009.27 1009.48 1009.57 1009.68 1009.66 1009.65 1009.52 1009.48 1009.64 1009.85 1009.81 1010.00 1010.06 1010.10
998.22 999.89 1000.73 1000.99 1000.80 1000.09 998.94 998.10 996.50 995.36 995.14 995.25 995.84 996.96 998.35 999.42 1000.28 1001.21 1002.00 1002.65 1003.26 1003.90 1004.56 1005.11 1005.74 1006.08 1006.57 1007.01 1007.20 1007.54 1007.97 1008.43 1008.74 1008.94 1009.22 1009.34 1009.51 1009.63 1009.70 1009.75 1009.70 1009.58 1009.64 1009.74 1009.88 1010.03 1010.04 1010.11 1010.23
998.25 998.47 999.19 1000.03 1000.11 999.27 998.29 996.69 995.75 994.78 994.75 994.91 995.62 996.60 998.07 999.32 1000.22 1001.31 1002.06 1002.79 1003.37 1004.03 1004.66 1005.26 1005.66 1006.06 1006.55 1006.86 1007.15 1007.50 1007.88 1008.33 1008.65 1008.87 1009.22 1009.38 1009.51 1009.67 1009.78 1009.78 1009.78 1009.72 1009.81 1010.08 1010.06 1010.02 1010.08 1010.08 1010.33
996.87 997.05 998.20 998.49 999.45 998.92 998.16 996.26 995.36 995.10 994.85 995.25 995.59 996.61 998.01 999.53 1000.32 1001.22 1002.06 1002.66 1003.34 1003.97 1004.58 1005.11 1005.53 1005.90 1006.39 1006.71 1007.08 1007.41 1007.84 1008.29 1008.57 1008.83 1009.20 1009.39 1009.40 1009.62 1009.77 1009.80 1009.80 1009.86 1010.02 1010.32 1010.28 1010.24 1010.37 1010.52 1010.66
Wind_Speed
13 9 2 2 2 1 3 4 3 6 2 1 3 5 5 2 5 6 2 12 9 20 19 22 22 21 20 19 17 16 15 14 14 12 11 10 9 8 8 7 7 7 6 6 6 6 6 7 8
10 5 3 2 3 3 3 4 7 3 8 13 8 8 6 8 3 6 3 14 12 19 16 21 24 23 21 19 18 17 16 15 14 13 13 12 11 12 12 11 10 9 9 9 8 7 8 7 8
9 3 3 2 3 6 3 7 3 5 11 5 3 3 2 4 4 4 3 17 13 17 17 19 25 23 21 20 18 17 17 16 15 15 13 13 13 13 12 13 13 12 12 12 12 11 9 9 9
5 4 3 4 11 8 6 4 5 12 2 4 2 7 3 4 1 2 7 16 14 17 16 19 23 21 21 20 19 18 18 17 16 15 14 14 14 14 13 14 15 14 14 14 13 12 11 11 10
2 1 4 5 9 7 10 15 8 11 7 6 2 3 5 3 2 2 8 14 16 17 15 16 21 21 21 20 19 18 17 16 16 16 16 15 15 13 14 15 15 16 14 15 15 13 11 11 11
3 1 4 9 11 9 10 13 8 9 8 4 3 3 6 2 5 6 10 16 14 16 16 15 21 20 19 19 18 17 16 15 15 15 14 14 13 12 13 14 14 14 15 16 15 13 12 12 11
4 4 5 8 13 11 8 6 7 6 4 1 1 4 3 5 5 5 9 14 13 15 15 14 17 19 18 18 17 16 15 14 13 13 13 11 8 8 9 10 12 13 14 14 14 14 14 14 12
2 3 4 7 9 11 1 3 3 3 4 3 3 2 8 8 2 5 8 12 10 12 15 15 15 16 16 15 16 16 14 13 11 12 10 9 7 7 8 8 9 11 12 15 17 16 16 16 13
3 7 13 15 12 10 2 6 3 5 9 6 3 13 13 4 1 5 8 11 11 11 13 14 15 15 14 13 13 13 14 12 11 11 10 8 6 5 7 8 9 10 11 12 13 15 15 16 16
9 12 19 15 14 13 7 8 8 8 15 20 17 15 11 8 6 11 13 16 17 17 17 15 14 14 13 10 11 12 10 9 9 8 8 6 5 5 7 9 10 11 12 12 12 13 10 14 10
10 20 25 21 19 9 19 18 13 16 23 23 19 21 23 17 11 13 17 19 23 18 14 16 14 12 13 10 8 6 6 6 6 8 7 6 5 5 5 5 5 5 7 7 7 7 6 7 8
16 22 24 27 17 13 22 19 19 20 31 24 23 21 20 22 17 15 18 20 20 19 18 15 14 12 12 9 8 8 6 6 6 7 8 6 5 6 6 5 6 5 5 6 5 4 5 7 8
22 22 21 21 20 21 20 22 19 26 31 23 23 21 20 20 20 17 19 18 17 19 17 15 16 15 13 10 8 8 7 7 6 6 7 6 7 7 7 7 6 5 6 5 6 5 4 5 7
11 22 24 19 17 24 21 25 18 27 27 21 20 22 22 19 21 15 14 19 17 17 17 17 17 14 12 11 10 7 6 6 6 5 7 8 8 7 7 7 7 7 5 5 5 4 4 5 5
15 17 14 14 16 15 11 24 19 31 21 20 24 21 21 20 18 17 17 17 19 16 14 16 17 16 15 13 10 7 6 6 5 6 8 9 9 9 9 8 7 7 5 7 5 4 4 4 5
10 10 17 12 19 11 15 27 19 19 13 17 18 17 17 19 18 17 16 15 13 13 17 15 13 15 14 11 9 6 5 5 5 6 7 9 10 10 9 8 7 6 5 5 4 5 5 5 6
11 14 14 10 9 4 16 21 16 10 8 16 18 19 19 19 17 17 14 14 13 15 16 15 16 17 15 11 7 6 5 5 6 6 7 8 10 10 9 7 5 6 5 4 5 5 6 6 6
18 15 16 17 9 15 22 24 17 18 12 19 18 17 17 19 23 15 10 9 12 16 17 17 16 17 14 9 6 4 3 5 5 6 6 7 7 8 8 5 6 5 5 5 5 7 6 5 6
19 22 27 21 13 16 17 18 12 17 17 21 19 19 20 19 18 5 3 9 13 15 17 18 18 15 11 9 7 4 4 4 5 5 6 6 6 7 7 6 5 5 6 6 6 6 7 6 5
22 24 21 13 10 12 16 20 15 18 23 21 19 19 20 17 15 3 4 7 13 15 16 18 17 16 11 8 5 3 3 3 3 2 3 4 5 5 6 6 5 6 5 6 6 7 6 5 5
26 26 24 20 14 15 16 23 20 19 11 16 17 19 19 16 13 4 6 8 9 14 17 17 16 15 11 9 6 3 2 3 3 2 1 2 3 4 6 7 5 5 5 5 6 8 8 6 5
26 23 20 19 11 16 3 16 18 20 22 21 21 16 16 11 7 5 9 11 12 12 15 15 14 13 11 9 7 6 4 3 1 0 0 1 2 3 4 5 5 5 4 5 5 6 6 6 6
15 12 16 17 17 17 16 12 8 13 22 24 20 18 10 5 3 7 10 12 14 15 14 13 13 12 11 9 6 6 4 2 2 2 2 3 2 3 4 5 5 5 5 5 5 7 7 5 5
13 8 10 6 7 13 14 12 13 15 19 16 13 9 2 2 5 8 10 13 15 15 14 13 13 11 10 8 7 6 4 4 3 2 2 2 2 2 4 5 4 4 5 6 6 7 7 5 3
21 14 6 7 8 10 15 13 19 14 18 18 18 6 1 4 9 11 15 16 17 17 15 13 13 11 10 9 7 5 4 4 2 1 2 2 3 3 4 4 4 3 5 5 6 7 7 6 4
25 21 9 8 6 9 5 11 9 18 18 22 16 9 4 8 9 11 14 17 18 17 15 14 13 11 10 8 7 5 5 3 2 1 2 2 3 4 5 4 3 3 4 4 5 5 5 5 4
19 21 14 5 1 6 5 6 11 17 14 11 10 5 7 10 11 13 15 16 17 15 15 14 13 10 10 8 7 5 5 4 3 4 3 3 5 5 5 4 2 4 4 4 5 4 5 5 5
18 19 11 9 9 10 6 6 8 5 9 8 8 8 9 11 13 14 16 15 14 14 13 12 11 11 9 7 6 5 5 5 5 5 5 5 6 5 4 4 2 3 4 4 4 4 4 4 3
12 19 7 10 6 5 3 6 9 14 8 7 2 9 12 12 13 14 15 14 14 12 12 12 10 9 8 7 6 6 6 6 5 5 5 5 6 5 4 3 3 2 5 5 4 4 4 4 4
20 21 19 10 10 10 2 5 0 8 7 7 2 9 13 12 14 15 15 15 14 13 13 11 9 8 8 7 6 6 6 6 6 5 5 5 6 5 4 4 4 4 5 5 4 4 4 5 5
Wind_Direction
147 147 181 152 209 267 234 232 258 259 254 166 151 198 248 286 198 290 35 193 163 160 170 172 172 177 183 184 183 183 185 187 188 192 198 204 210 217 233 247 258 274 279 277 277 270 256 251 254
151 151 213 123 221 218 200 225 220 239 316 313 232 213 224 267 244 273 214 176 174 164 171 177 178 181 185 187 185 185 189 194 195 200 205 212 222 229 236 236 238 244 262 267 262 256 260 254 250
166 213 225 223 198 226 228 203 218 301 303 262 275 238 209 219 213 256 191 169 164 171 173 181 182 183 186 188 189 189 192 196 199 207 215 220 226 232 237 241 243 247 249 259 259 257 254 247 249
174 180 120 243 232 239 236 203 268 314 336 171 240 271 261 259 236 277 154 163 164 175 179 184 185 184 187 190 192 193 195 196 201 210 217 223 231 237 241 247 249 251 253 257 263 271 276 253 241
157 167 228 248 254 258 248 265 276 286 300 292 219 265 257 237 279 170 167 171 176 180 184 186 188 189 190 192 193 196 198 200 205 210 218 227 238 248 249 251 253 258 263 259 259 267 269 275 263
140 192 226 251 254 261 265 261 257 243 267 284 205 259 261 319 250 188 176 188 188 181 187 192 189 192 193 193 193 198 201 204 210 215 223 236 247 243 253 260 267 268 261 260 263 265 271 271 272
210 185 238 268 278 283 253 248 225 224 222 217 211 242 277 296 264 197 198 196 194 184 186 190 190 195 197 195 191 196 203 207 212 219 228 240 246 255 268 273 275 274 273 271 266 263 267 271 270
188 227 219 235 266 272 324 223 136 216 285 1 216 242 309 324 352 178 207 207 207 194 192 192 192 193 199 198 195 193 199 204 212 220 216 221 231 251 261 274 264 277 273 271 265 260 262 263 265
140 229 238 236 224 249 248 255 40 328 290 261 259 290 301 308 160 193 208 209 209 207 203 196 192 193 195 199 198 194 199 201 205 210 210 210 236 254 265 275 266 267 268 265 262 262 263 261 258
200 227 232 234 239 251 274 292 306 288 291 277 281 276 265 275 259 261 222 213 214 204 204 199 194 194 192 194 195 198 203 204 207 210 209 220 232 244 263 266 260 267 265 268 272 278 290 252 244
203 231 234 257 249 263 281 278 287 289 288 281 292 296 302 297 270 252 241 226 215 215 205 201 193 190 191 191 189 192 198 199 205 208 211 220 229 235 250 263 262 265 260 265 266 271 270 271 244
238 229 239 250 259 263 264 289 281 284 268 281 287 287 284 285 282 240 236 230 225 210 212 193 188 180 188 189 185 193 197 202 210 210 217 227 237 237 247 254 254 251 256 261 261 262 274 266 248
230 242 236 248 267 263 272 266 270 283 281 287 276 277 270 275 272 253 243 244 226 223 207 195 182 183 180 182 180 194 200 209 217 218 226 232 240 240 247 246 250 254 253 249 257 249 265 262 245
231 239 245 246 254 264 269 272 268 264 267 285 279 272 275 271 267 271 244 239 223 217 202 193 188 178 170 180 182 191 203 210 218 230 237 225 236 239 249 242 242 245 238 248 252 247 263 259 248
243 256 242 240 241 253 286 269 244 258 279 270 272 275 275 275 275 255 246 235 222 214 188 189 182 174 174 178 184 193 200 213 222 236 233 230 232 236 238 239 240 247 221 230 225 240 239 247 236
223 229 244 231 235 247 216 266 264 271 268 274 274 278 277 275 275 271 252 238 222 199 188 173 180 172 172 173 181 188 192 216 235 242 242 239 237 236 235 236 236 233 230 229 230 227 234 239 234
212 240 225 247 207 216 200 268 261 273 288 282 279 280 279 280 275 263 258 243 202 182 171 172 175 170 165 168 175 181 200 224 241 247 248 246 239 232 228 231 235 209 225 231 236 221 237 230 225
226 234 238 243 226 226 248 256 277 288 297 277 281 281 276 273 271 289 264 225 178 170 167 165 170 162 157 154 155 170 216 241 245 247 245 241 231 219 215 221 225 211 216 217 216 228 215 232 225
249 251 249 252 230 244 256 275 282 295 290 283 285 284 277 273 285 310 262 184 170 171 167 160 153 157 153 153 159 187 220 231 227 235 242 232 220 211 214 219 210 205 216 221 217 225 225 214 197
231 245 246 251 252 263 279 277 287 284 278 280 279 283 277 281 281 256 166 183 178 170 165 154 153 155 161 156 151 152 187 216 251 240 242 222 217 214 214 205 205 201 210 208 210 213 214 214 197
224 232 237 246 268 271 283 280 277 276 272 276 276 271 275 270 282 217 163 171 183 168 161 152 150 156 156 146 135 134 185 218 220 204 195 212 216 208 215 201 194 193 209 217 211 212 208 196 202
231 224 247 250 253 261 322 290 278 283 283 280 283 274 267 267 241 164 152 167 168 160 152 148 147 151 152 154 161 176 206 227 168 199 143 148 168 173 198 194 189 205 204 209 204 203 209 215 191
240 225 224 236 244 272 256 265 281 285 280 275 273 267 279 318 202 159 156 157 155 154 149 147 145 150 152 159 166 179 193 181 152 157 156 140 136 152 167 180 187 193 204 202 198 195 214 221 202
193 200 205 222 247 251 257 249 277 267 256 274 265 252 12 26 112 133 144 146 148 150 147 145 149 153 151 157 170 185 189 161 169 174 186 179 161 130 183 158 166 182 202 206 196 201 208 227 247
196 184 205 221 215 249 241 233 247 261 249 259 263 282 54 129 135 150 152 150 149 153 151 151 157 153 157 167 177 179 159 152 167 171 197 183 156 182 158 155 167 197 208 190 187 191 197 213 236
190 187 176 205 215 249 143 217 252 244 259 243 249 279 162 151 147 152 152 150 152 154 154 159 160 152 167 174 172 164 140 139 133 143 100 124 157 161 138 141 156 123 174 192 172 183 187 190 216
182 203 203 258 281 275 167 260 276 246 246 234 238 216 174 159 153 150 156 157 156 158 164 161 157 160 167 166 164 155 146 142 139 99 113 145 140 137 133 128 125 145 131 150 165 162 177 195 212
201 185 182 205 219 237 236 279 259 313 243 203 192 192 168 155 150 158 164 161 159 163 161 155 161 166 163 169 167 159 153 156 134 122 141 147 136 136 135 132 117 81 90 97 125 131 167 186 182
176 186 185 189 217 207 281 243 211 252 263 271 351 152 156 155 155 164 165 161 157 158 160 157 161 157 161 170 166 161 158 162 140 135 145 147 140 134 147 151 153 122 102 96 101 118 146 167 142
199 186 183 185 190 223 287 256 242 247 295 309 248 139 138 159 159 165 166 158 159 163 163 161 157 168 163 163 166 166 158 162 151 147 151 158 144 142 157 167 155 139 113 96 99 86 122 127 118